Location: Guferjoch
(46.7462°N, 8.4506°E)
Time: 13:08:09
(UTC+00:00)

CZ-4C R/B - Pass Details

Date: 14 July 2020
Orbit: 632 x 1370 km, 63.4° (Epoch: 06 August)

Event Time Altitude Azimuth Distance (km) Brightness Sun altitude
Rises 00:16:13 0° 311° (NW) 3,967 6.1 -20.9°
Reaches altitude 10° 00:19:27 10° 297° (WNW) 3,118 5.3 -20.8°
Maximum altitude 00:24:58 22° 250° (WSW) 2,466 4.3 -20.6°
Enters shadow 00:26:33 21° 235° (SW) 2,566 4.3 -20.5°
